カタログに戻る

COSMOS 1375

運用中軍事LEO
NORAD 13259·PAYLOAD·🇷🇺 Russia

打ち上げ Jun 6, 1982 から Plesetsk Cosmodrome

Loading…

次のパス (今後24時間)

TLE

最新Source: Space-Track

元期: Sep 14, 2026, 04:05 UTC

1 13259U 82055A   26257.17046784  .00000090  00000-0  15293-3 0  9991
2 13259  65.8312 180.9688 0014438 151.6468 208.5389 13.84990904226404

AllMySatでCOSMOS 1375をリアルタイム追跡

Download on the App Store